OBJECT F, 57429

Orbit data source: Space-Track

You're viewing an Uncataloged Satellite

Recently launched and/or uncataloged satellites may have evolving metadata. Metadata may include but not limited to: Owner, Maufacturer, Bus, Motor, and Mission.

OBJECT F, 57429 is a Chinese satellite in SSO that was launched on Sun, 23 Jul 2023 UTC via a CHANG ZHENG 2D launch vehicle from the Taiyaun Space Center, China (TSC). Unknown objects in Earth's orbit typically refer to objects detected orbiting the Earth but have not yet been identified or cataloged. These objects could be anything from previously untracked satellites, spent rocket stages, debris from satellite collisions, or even natural meteoroids temporarily captured by Earth's gravity.

Loading next visibility...
Identifier
57429, 2023-104F
Orbit
SSO
Country
Flag of CNCN / PRC
Related business
None
Manufacturer
Unknown
Mission
Commercial Communications
Bus & Motor
Unknown
Mass
Unknown
Launch date (UTC)
2023-07-23 (2 years ago)
Launch vehicle
CHANG ZHENG 2D
Launch site
Taiyaun Space Center, China (TSC)
Object type
Unknown
Shape & HBR
Box + 1 Pan, 5.0 m
Radar Cross Section
16.383 m², Medium (>0.1 m² and < 1m²)

Expand to show TLE details & history
Last TLE update: 6 hours ago

TLE from 6 hours ago
0 OBJECT F
1 57429U 23104F   25308.27163102  .00024423  00000-0  56599-3 0  9999
2 57429  97.2890  15.9993 0024559 137.4513 222.8643 15.42095228127688
Epoch: 2025-11-04T06:31Z
TLE epoch observation values (Epoch: 2025-11-04T06:31:08.920Z)
Latitude
-0.00003°
Longitude
-125.54891°
Altitude
455.345 km
Speed
7.632 km/s
True Right ascension
01h 03m 59s
True Declination
0° 00' 00"
Sunlit
Object was in full shadow at epoch
Visualization orbit readout
Latitude
Unknown
Longitude
Unknown
Altitude
Unknown
Speed
Unknown
Apparent Right ascension
Unknown
Apparent Declination
Unknown
Sunlit
N/A
Visualization observer readout
Local Sidereal Time
08:42:43
Azimuth
Unknown
Elevation
Unknown
Doppler factor
Unknown
Orbital elements
Apogee altitude
453.595 km
Perigee altitude
420.121 km
Semi-major axis
6,814.995 km
Eccentricity
0.00246
Inclination
97.289°
RAAN
15.9993°
Arg. of periapsis
137.4513°
True anomaly
222.67329°
Mean anomaly
222.8643°
Eccentric anomaly
222.76875°
Mean motion
3.85785 °/min
Orbital period
93.32 mins
BSTAR
0.00056599
Loading maneuver chart data...
Computing Atmospheric mass density...
Loading historical data...
Loading historical data...
Loading historical data...
Loading historical data...
Loading historical data...
Loading historical data...
Loading historical data...
Other satellites on launch #104 in the year 2023 (2023-07-23 UTC)

Documentation

Showing up to 5 results
|